Flag for Germany Weather past 2 weeks in Limburg an der Lahn, Hesse, Germany

Now
55 °F

Mostly cloudy.


Feels Like: 55 °F
Forecast: 43 / 65 °F
Wind: 2 mph from Southwest

Location: Wiesbaden Airport

Current Time: Aug 23, 2014 at 7:48:01 AM

Latest Report: Aug 23, 2014 at 6:58 AM


Visibility: N/A

Pressure: 29.94 "Hg

Humidity: 84%

Dew point: 50 °F

Location of Limburg an der LahnLocation

Historic Weather in Limburg an der Lahn — Graph

°F

Limburg an der Lahn temperature yesterday

Maximum temperature yesterday: 68 °F (at 3:58 PM)
Minimum temperature yesterday: 45 °F (at 6:58 AM)
Average temperature yesterday: 57 °F

Past Weeks' High & Low Weather Summary

 TemperatureHumidityPressure
High81 °F (Aug 8, 2:58 PM)100% (Aug 10, 6:58 PM)30.12 "Hg (Aug 10, 6:58 PM)
Low45 °F (Aug 22, 6:58 AM)41% (Aug 12, 6:58 PM)29.66 "Hg (Aug 13, 3:58 PM)
Average62 °F75%29.91 "Hg
* Reported Aug 8 6:58 AM — Aug 23 6:58 AM, Limburg an der Lahn, Weather by CustomWeather, © 2014

Note: Actual official high and low records may vary slightly from our data, if they occured in-between our weather recording intervals... More about our weather records

Advertising

Limburg an der Lahn weather history for previous 24 hours

 ConditionsComfort  
Time TempWeatherWind HumidityBarometerVisibility
6:58 AM
Aug 23
55 °FMostly cloudy.2 mph84%29.94 "HgN/A
5:58 AM55 °FMostly cloudy.5 mph82%29.93 "HgN/A
4:58 AM55 °FMostly cloudy.7 mph82%29.93 "HgN/A
3:58 AM55 °FMostly cloudy.5 mph82%29.94 "HgN/A
2:58 AM54 °FPartly cloudy.5 mph83%29.93 "HgN/A
1:58 AM55 °FOvercast.1 mph83%29.94 "HgN/A
12:58 AM54 °FMostly cloudy.1 mph81%29.94 "HgN/A
11:58 PM
Aug 22
55 °FPassing clouds.No wind77%29.94 "HgN/A
10:58 PM57 °FPassing clouds.1 mph73%29.93 "HgN/A
9:58 PM60 °FPassing clouds.5 mph62%29.93 "HgN/A
8:58 PM63 °FScattered clouds.2 mph56%29.92 "HgN/A
7:58 PM65 °FPartly sunny.6 mph52%29.91 "HgN/A
6:58 PM66 °FOvercast.10 mph49%29.93 "HgN/A
5:58 PM66 °FOvercast.10 mph47%29.92 "HgN/A
4:58 PM66 °FMostly cloudy.12 mph46%29.93 "HgN/A
3:58 PM68 °FPartly sunny.12 mph43%29.94 "HgN/A
2:58 PM66 °FOvercast.8 mph49%29.96 "HgN/A
1:58 PM67 °FPartly sunny.8 mph49%29.96 "HgN/A
12:58 PM66 °FPartly sunny.7 mph52%29.98 "HgN/A
11:58 AM63 °FOvercast.1 mph59%29.98 "HgN/A
10:58 AM58 °FOvercast.2 mph69%30.01 "HgN/A
9:58 AM55 °FPartly sunny.3 mph72%30.01 "HgN/A
8:58 AM54 °FScattered clouds.No wind77%29.99 "HgN/A
7:58 AM50 °FPassing clouds.No wind87%30.00 "HgN/A
Weather by CustomWeather, © 2014

See weather overviewHow to use our weather pages